{"data":{"norad_id":47388,"epoch":"2026-05-25T04:30:20.467296Z","epoch_age_seconds":52016,"freshness":"FRESH","line1":"1 47388U 21005AR  26145.18773689  .00005480  00000+0  18809-3 0  9990","line2":"2 47388  53.1615  70.4861 0001205  90.1421 269.9718 15.31721241294682","mean_motion":15.31721241,"eccentricity":0.0001205,"inclination_deg":53.1615,"raan_deg":70.4861,"arg_perigee_deg":90.1421,"mean_anomaly_deg":269.9718,"bstar":0.00018809,"rev_number":29468,"period_min":94.011884242062,"perigee_km":469.8513955935,"apogee_km":471.50195968981,"semimajor_km":6848.8136776417,"source":"CELESTRAK","updated_at":"2026-05-25T13:38:16.552681Z"}}